Meath Environmental Platform

Observations for Trim Patrick St

Time AQI Temp °C Hum % Pres Pa CO μg/m³ H₂S μg/m³ NO μg/m³ NO₂ μg/m³ O₃ μg/m³ SO₂ μg/m³ PM1 μg/m³ PM2.5 μg/m³ PM10 μg/m³
Sunday 2 August 2026
17:17 3 25.6 38 69,033 0 2.07 0.99 11.66 89.54 9.72 3.71 9.54 10.5
17:16 3 25.7 38 69,027 0 0 1.04 12.72 78.8 9.02 3.71 9.56 10.52
17:15 3 25.7 37 69,016 0 0 1.11 12.23 73.28 7.47 2.86 8.83 9.71
17:13 3 25.9 37 69,035 0 0 1.25 14.32 90.56 8.47 3.71 9.63 10.6
17:12 3 25.9 37 68,995 0 0 1.25 13.42 75.46 7.31 2.86 8.04 8.85
17:11 3 26 37 69,001 0 0 1.29 13.17 89.33 9.16 3.71 11.2 12.32
17:10 3 26 37 68,983 0 0 1.36 13.71 78.16 8.1 3.71 8.83 9.71
17:09 3 26.1 36 69,016 0 0 1.42 13.1 74.13 8.06 2.86 10.43 11.48
17:08 3 26.2 36 69,033 0 0 1.44 11.47 74.78 8.42 3.71 9.65 10.61
17:07 3 26.2 36 69,016 0 0 1.48 12.5 74.53 7.2 3.71 8.91 9.8
17:06 3 26.2 36 68,999 0 0 1.43 13.4 73.91 7.77 3.71 9.67 10.64
17:05 3 26.3 37 69,004 0 0 1.45 14.96 73.97 7.69 3.71 8.81 9.69
17:04 3 26.3 37 69,010 0 0 1.29 13.2 74.16 8.41 2.86 8.81 9.7
17:03 3 26.3 37 69,021 0 0 1.49 15.86 78.72 8.64 2.86 8.84 9.73
17:02 3 26.3 36 69,029 0 0 1.45 14.75 76.73 8.44 3.71 9.65 10.61
17:01 3 26.3 37 69,010 0 0 1.49 13.57 73.86 8.6 3.71 9.61 10.57
17:00 3 26.3 37 69,021 0 0 1.5 14.91 74.07 7.88 3.71 8.84 9.73
16:59 3 26.3 37 69,033 0 0 1.46 14.05 78.35 8.55 3.71 9.62 10.58
16:58 3 26.3 36 69,049 0 0 1.46 12.26 74.19 8.07 2.86 8.87 9.76
16:57 3 26.3 36 69,067 0 0 1.47 14.36 73.74 7.53 2.86 8.85 9.73